Regional Weather Roundup
Issued by NWS

Home | Current Version | Previous Version | Text Only | Print | Product List | Glossary On
Versions: 1 2 3 4 5 6 7 8 9 10 11 12 13 14 15 16 17 18 19 20 21 22 23 24 25 26 27 28 29 30 31 32 33 34 35 36 37 38 39 40 41 42 43 44 45 46 47 48 49 50
000
ASUS44 KFWD 280915
RWRTX
NORTH TEXAS HOURLY WEATHER ROUNDUP
NATIONAL WEATHER SERVICE FORT WORTH TX
400 AM CDT MON JUL 28 2014

NOTE: "FAIR" INDICATES FEW OR NO CLOUDS BELOW 12,000 FEET WITH NO
SIGNIFICANT WEATHER AND/OR OBSTRUCTIONS TO VISIBILITY.

TXZ118-119-281000-
DALLAS/FORT WORTH METROPLEX

CITY           SKY/WX    TMP DP  RH WIND       PRES   REMARKS
DFW AIRPORT    PTCLDY    85  69  58 SW9       30.02S
DALLAS LOVE    PTCLDY    85  70  60 SW7       30.03R
FTW MEACHAM    CLEAR     84  69  60 S7        30.02S
DAL-EXECUTIVE  CLEAR     86  70  58 VRB6      30.03R HX  90
FTW-ALLIANCE   PTCLDY    82  68  62 SW3       30.03R
FTW-NAS-JRB    CLEAR     86  66  51 S13       30.07R
FTW-SPINKS     CLEAR     81  68  65 S7        30.05S
ARLINGTON      CLEAR     84  69  60 S6        30.03S
GRAND PRAIRIE  CLEAR     83  68  60 S5        30.04S
ADDISON        MOCLDY    86  68  54 SW3       30.06R
MESQUITE       CLEAR     75  72  88 S5        30.04R
LANCASTER      PTCLDY    80  68  66 CALM      30.04R
$$

TXZ091>094-102>105-117-120-121-131>134-281000-
NORTH CENTRAL TEXAS

CITY           SKY/WX    TMP DP  RH WIND       PRES   REMARKS
SHRMAN/DENISON MOCLDY    81  74  81 N8        30.08R
GAINESVILLE    PTCLDY    81  74  79 N10       30.10R
BOWIE          PTCLDY    79  69  70 N5        30.07R
BRIDGEPORT     PTCLDY    77  66  68 CALM      30.06S
DECATUR        CLEAR     82  64  55 SW6       30.06R
DENTON         MOCLDY    79  70  74 NE5       30.04R
MCKINNEY       PTCLDY    79  72  79 CALM      30.04R
GREENVILLE     CLEAR     77  72  83 CALM      30.04R
ROCKWALL       CLEAR     79  72  79 S5        30.03R
TERRELL        CLEAR     79  75  87 CALM      30.04R
WAXAHACHIE     PTCLDY    82  68  62 SW8       30.05S
CLEBURNE       CLEAR     79  73  83 S6        30.07R
GRANBURY       CLEAR     81  68  63 SE3       30.06R
$$

TXZ083>090-098>101-113>116-127>130-139>142-154-155-281000-
WESTERN NORTH TEXAS

CITY           SKY/WX    TMP DP  RH WIND       PRES   REMARKS
WICHITA FALLS  PTCLDY    81  70  69 NE17G26   30.07R
WF-KICKAPOO    PTCLDY    82  71  67 NE12      30.09R
VERNON         PTCLDY    82  66  59 E13       30.10R
ABILENE        CLEAR     81  63  54 SE8       30.09R
ABILENE-DYESS  CLEAR     79  63  58 S8        30.07S
BRECKENRIDGE   CLEAR     83  63  50 SE7       30.05S
GRAHAM         MOCLDY    82  64  56 CALM      30.04R
MINERAL WELLS  CLEAR     78  66  66 SE5       30.04S
STEPHENVILLE   CLEAR     77  66  68 CALM      30.11R
COMANCHE       CLEAR     78  65  64 S8        30.08R
BROWNWOOD      MOCLDY    75  64  69 CALM      30.09R
COLEMAN        CLEAR     76  63  63 CALM      30.10R
BRADY          CLEAR     79  68  69 S5        30.09R
$$

TXZ143>147-156>162-174-175-281000-
CENTRAL TEXAS

CITY           SKY/WX    TMP DP  RH WIND       PRES   REMARKS
WACO           CLEAR     80  70  71 S8        30.05R
WACO-MCGREGOR  CLEAR     79  66  65 S6        30.07R
HILLSBORO      CLEAR     80  70  70 S6        30.05R
CORSICANA      CLEAR     82  71  69 SW9       30.05R
MEXIA          CLEAR     79  73  82 SW7       30.04R
HEARNE         CLEAR    N/A N/A N/A CALM      30.05S
CAMERON        CLEAR     78  71  78 SW5       30.05R
TEMPLE         CLEAR     77  66  69 S7        30.06S
KILLEEN        CLEAR     77  68  73 S8        30.06S
KILLEEN-SKYLRK CLEAR     77  64  65 S6        30.06S
FORT HOOD      CLEAR     81  68  64 S7        30.06S
GATESVILLE     CLEAR     79  68  69 S5        30.08S
HAMILTON       CLEAR     76  67  73 S7        30.09R
LAMPASAS       CLEAR     76  69  79 CALM      30.07R
$$

TXZ095>097-106>112-122>126-135>138-148>153-164>167-281000-
EAST TEXAS

CITY           SKY/WX    TMP DP  RH WIND       PRES   REMARKS
PARIS          PTCLDY    81  72  74 CALM      30.04S
SULPHUR SPRNGS CLEAR     79  73  82 CALM      30.06R
CLARKSVILLE    CLEAR     80  77  92 CALM      30.03S
MOUNT PLEASANT MOCLDY    76  75  96 CALM      30.05R
GILMER         CLEAR     81  73  78 SW5       30.05R
MINEOLA        CLEAR     79  73  83 CALM      30.05R
TYLER          CLEAR     78  73  84 S6        30.04S
LONGVIEW       PTCLDY    78  73  84 SW6       30.03R
MARSHALL       PTCLDY    78  74  87 S5        30.05R
ATHENS         CLEAR     75  72  88 CALM      30.04R
JACKSONVILLE   CLEAR     78  74  86 SW6       30.08R
HENDERSON      CLEAR     76  74  95 CALM      30.06R
NACOGDOCHES    CLEAR     77  75  94 CALM      30.05S
LUFKIN         CLEAR     80  75  84 SW3       30.04S
$$

SUPPLEMENTAL OBSERVATIONS (CENTRAL)

CITY           SKY/WX    TMP DP  RH WIND       PRES   REMARKS
LAKE TEXOMA      N/A     81  79  94 N7          N/A
PAT MAYSE LAKE   N/A     79  75  89 NW5         N/A
GREENVILLE       N/A     79  73  83 N2          N/A
CEDAR HILL       N/A     81  68  65 S6          N/A
ATHENS           N/A     79  72  78 SW2         N/A
MCGREGOR         N/A     77  68  73 SW2         N/A
$$

SUPPLEMENTAL OBSERVATIONS (WEST)

CITY           SKY/WX    TMP DP  RH WIND       PRES   REMARKS
MILLERS CREEK    N/A     82  57  42 S3          N/A
GRANBURY         N/A     81  66  61 SE5         N/A
HAMBY            N/A    N/A N/A N/A S7          N/A
IVIE RESERVOIR   N/A     79  64  61 NE3         N/A
COLORADO BEND    N/A     79  64  61 S5          N/A
$$

SUPPLEMENTAL OBSERVATIONS (EAST)

CITY           SKY/WX    TMP DP  RH WIND       PRES   REMARKS
CLARKSVILLE      N/A     79  73  83 NW5         N/A
TEXARKANA        N/A     75  72  88 CALM        N/A
LINDEN           N/A     79  73  83 CALM        N/A
CADDO LAKE       N/A     73  72  94 CALM        N/A
GILMER           N/A     79  72  78 SW3         N/A
HENDERSON        N/A     75  70  83 S3          N/A
N SABINE NF      N/A     75  72  88 MISG        N/A
S SABINE NF      N/A     77  73  88 W1          N/A
$$

SUPPLEMENTAL OBSERVATIONS ARE A COLLECTION OF AUTOMATED INSTRUMENTS
THAT ARE MAINTAINED BY A VARIETY OF FEDERAL AND STATE AGENCIES.
CERTAIN ELEMENTS...SUCH AS HUMIDITY VALUES AND SUSTAINED WIND
SPEEDS...MAY BE APPROXIMATED.




USA.gov is the U.S. government's official web portal to all federal, state and local government web resources and services.